| time (UTC) | temp C | wind direction | speed KPH | gust KPH | rain 1hr cm | rain 24hr cm | rain mn cm | humidity % | barometer mb |
| 20260503200327 | 15 | 296 | 8.0 | 12.9 | 0.00 | 0.00 | 0.00 | 38 | 1014.5 |
| 20260503195825 | 15 | 127 | 1.6 | 6.4 | 0.00 | 0.00 | 0.00 | 38 | 1014.5 |
| 20260503195321 | 14 | 118 | 3.2 | 11.3 | 0.00 | 0.00 | 0.00 | 39 | 1014.8 |
| 20260503194819 | 14 | 4 | 3.2 | 9.7 | 0.00 | 0.00 | 0.00 | 39 | 1014.7 |
| 20260503194314 | 14 | 61 | 3.2 | 4.8 | 0.00 | 0.00 | 0.00 | 38 | 1014.8 |
| 20260503193811 | 15 | 336 | 6.4 | 11.3 | 0.00 | 0.00 | 0.00 | 38 | 1015.0 |
| 20260503193307 | 15 | 16 | 3.2 | 16.1 | 0.00 | 0.00 | 0.00 | 39 | 1015.2 |
| 20260503192803 | 15 | 9 | 4.8 | 6.4 | 0.00 | 0.00 | 0.00 | 36 | 1015.1 |
| 20260503192258 | 15 | 346 | 6.4 | 12.9 | 0.00 | 0.00 | 0.00 | 34 | 1015.0 |
| 20260503191755 | 15 | 0 | 3.2 | 16.1 | 0.00 | 0.00 | 0.00 | 34 | 1015.3 |
| 20260503191252 | 15 | 315 | 6.4 | 6.4 | 0.00 | 0.00 | 0.00 | 36 | 1015.4 |
| 20260503190749 | 15 | 154 | 6.4 | 11.3 | 0.00 | 0.00 | 0.00 | 39 | 1015.2 |
| 20260503190246 | 15 | 31 | 1.6 | 4.8 | 0.00 | 0.00 | 0.00 | 37 | 1015.4 |
| 20260503185743 | 15 | 342 | 14.5 | 25.7 | 0.00 | 0.00 | 0.00 | 40 | 1015.5 |
| 20260503185238 | 15 | 295 | 6.4 | 12.9 | 0.00 | 0.00 | 0.00 | 38 | 1015.4 |
| 20260503184733 | 14 | 323 | 6.4 | 12.9 | 0.00 | 0.00 | 0.00 | 41 | 1015.8 |
| 20260503184230 | 13 | 336 | 4.8 | 12.9 | 0.00 | 0.00 | 0.00 | 41 | 1015.8 |
| 20260503183726 | 14 | 274 | 4.8 | 14.5 | 0.00 | 0.00 | 0.00 | 40 | 1015.8 |
| 20260503183223 | 15 | 322 | 3.2 | 6.4 | 0.00 | 0.00 | 0.00 | 43 | 1015.8 |
| 20260503182721 | 15 | 356 | 3.2 | 3.2 | 0.00 | 0.00 | 0.00 | 39 | 1015.8 |
| 20260503182220 | 14 | 271 | 3.2 | 16.1 | 0.00 | 0.00 | 0.00 | 41 | 1015.9 |
| 20260503181716 | 15 | 286 | 4.8 | 11.3 | 0.00 | 0.00 | 0.00 | 40 | 1015.9 |
| 20260503181213 | 15 | 315 | 4.8 | 6.4 | 0.00 | 0.00 | 0.00 | 40 | 1016.0 |
| 20260503180709 | 13 | 321 | 6.4 | 11.3 | 0.00 | 0.00 | 0.00 | 39 | 1016.1 |
| 20260503180208 | 14 | 78 | 6.4 | 9.7 | 0.00 | 0.00 | 0.00 | 40 | 1016.2 |
| 20260503175704 | 13 | 208 | 4.8 | 6.4 | 0.00 | 0.00 | 0.00 | 40 | 1016.4 |
| 20260503175202 | 13 | 296 | 3.2 | 9.7 | 0.00 | 0.00 | 0.00 | 42 | 1016.5 |
| 20260503174658 | 14 | 320 | 6.4 | 9.7 | 0.00 | 0.00 | 0.00 | 42 | 1016.4 |
| 20260503174156 | 13 | 289 | 6.4 | 9.7 | 0.00 | 0.00 | 0.00 | 39 | 1016.4 |
| 20260503173651 | 13 | 127 | 4.8 | 14.5 | 0.00 | 0.00 | 0.00 | 40 | 1016.5 |
| 20260503173147 | 13 | 340 | 6.4 | 11.3 | 0.00 | 0.00 | 0.00 | 40 | 1016.5 |
| 20260503172644 | 13 | 329 | 3.2 | 6.4 | 0.00 | 0.00 | 0.00 | 42 | 1016.4 |
| 20260503172141 | 13 | 27 | 4.8 | 6.4 | 0.00 | 0.00 | 0.00 | 44 | 1016.6 |
| 20260503171637 | 12 | 28 | 4.8 | 4.8 | 0.00 | 0.00 | 0.00 | 43 | 1016.7 |
| 20260503171135 | 12 | 321 | 6.4 | 14.5 | 0.00 | 0.00 | 0.00 | 44 | 1016.7 |
| 20260503170632 | 12 | 156 | 3.2 | 11.3 | 0.00 | 0.00 | 0.00 | 44 | 1016.7 |
| 20260503170129 | 13 | 293 | 3.2 | 11.3 | 0.00 | 0.00 | 0.00 | 44 | 1016.9 |
| 20260503150520 | 11 | 277 | 8.0 | 11.3 | 0.00 | 0.00 | 0.00 | 45 | 1017.7 |
| 20260503131413 | 8 | 62 | 0.0 | 4.8 | 0.00 | 0.00 | 0.00 | 68 | 1018.4 |
| 20260503130910 | 8 | 124 | 0.0 | 3.2 | 0.00 | 0.00 | 0.00 | 67 | 1018.4 |
| 20260503130408 | 7 | 49 | 1.6 | 3.2 | 0.00 | 0.00 | 0.00 | 70 | 1018.3 |
| 20260503110811 | -1 | 99 | 0.0 | 0.0 | 0.00 | 0.00 | 0.00 | 99 | 1017.9 |
| 20260503110308 | -1 | 97 | 0.0 | 1.6 | 0.00 | 0.00 | 0.00 | 99 | 1017.8 |
| 20260503100234 | -1 | 71 | 0.0 | 0.0 | 0.00 | 0.00 | 0.00 | 99 | 1017.2 |
| 20260503090200 | -1 | 102 | 0.0 | 0.0 | 0.00 | 0.00 | 0.00 | 99 | 1017.1 |
| 20260503081636 | -1 | 90 | 0.0 | 0.0 | 0.00 | 0.00 | 0.00 | 99 | 1017.1 |
| 20260503081132 | -1 | 90 | 0.0 | 0.0 | 0.00 | 0.00 | 0.00 | 99 | 1017.2 |
| 20260503080628 | -1 | 90 | 0.0 | 0.0 | 0.00 | 0.00 | 0.00 | 99 | 1017.4 |
| 20260503080125 | 0 | 90 | 0.0 | 0.0 | 0.00 | 0.00 | 0.00 | 99 | 1017.2 |
| 20260503072602 | 0 | 90 | 0.0 | 0.0 | 0.00 | 0.00 | 0.00 | 99 | 1016.9 |
| 20260503072059 | 0 | 90 | 0.0 | 0.0 | 0.00 | 0.00 | 0.00 | 99 | 1016.8 |
| 20260503071556 | 0 | 90 | 0.0 | 0.0 | 0.00 | 0.00 | 0.00 | 99 | 1017.0 |
| 20260503071053 | 0 | 84 | 0.0 | 0.0 | 0.00 | 0.00 | 0.00 | 99 | 1017.0 |
| 20260503070549 | 0 | 83 | 0.0 | 0.0 | 0.00 | 0.00 | 0.00 | 99 | 1017.1 |
| 20260503055003 | 1 | 73 | 0.0 | 0.0 | 0.00 | 0.00 | 0.00 | 99 | 1017.2 |
| 20260503054459 | 1 | 86 | 0.0 | 0.0 | 0.00 | 0.00 | 0.00 | 99 | 1017.3 |
| 20260503053956 | 1 | 61 | 0.0 | 0.0 | 0.00 | 0.00 | 0.00 | 98 | 1017.1 |
| 20260503053454 | 1 | 61 | 0.0 | 0.0 | 0.00 | 0.00 | 0.00 | 98 | 1017.1 |
| 20260503052951 | 1 | 72 | 0.0 | 0.0 | 0.00 | 0.00 | 0.00 | 98 | 1017.1 |
| 20260503052448 | 1 | 55 | 0.0 | 0.0 | 0.00 | 0.00 | 0.00 | 98 | 1017.3 |
| 20260503051944 | 1 | 51 | 0.0 | 0.0 | 0.00 | 0.00 | 0.00 | 99 | 1017.2 |
| 20260503051440 | 1 | 57 | 0.0 | 0.0 | 0.00 | 0.00 | 0.00 | 99 | 1017.3 |
| 20260503050937 | 1 | 73 | 0.0 | 0.0 | 0.00 | 0.00 | 0.00 | 98 | 1017.3 |
| 20260503050433 | 1 | 73 | 0.0 | 0.0 | 0.00 | 0.00 | 0.00 | 98 | 1017.3 |
| 20260503045931 | 1 | 83 | 0.0 | 0.0 | 0.00 | 0.00 | 0.00 | 98 | 1017.3 |
| 20260503045428 | 1 | 83 | 0.0 | 0.0 | 0.00 | 0.00 | 0.00 | 98 | 1017.4 |
| 20260503044925 | 1 | 83 | 0.0 | 0.0 | 0.00 | 0.00 | 0.00 | 98 | 1017.3 |
| 20260503044422 | 1 | 90 | 0.0 | 0.0 | 0.00 | 0.00 | 0.00 | 98 | 1017.3 |
| 20260503043920 | 1 | 87 | 0.0 | 0.0 | 0.00 | 0.00 | 0.00 | 98 | 1017.4 |
| 20260503043416 | 1 | 102 | 0.0 | 0.0 | 0.00 | 0.00 | 0.00 | 98 | 1017.5 |
| 20260503042912 | 1 | 104 | 0.0 | 0.0 | 0.00 | 0.00 | 0.00 | 98 | 1017.5 |
| 20260503042409 | 1 | 74 | 0.0 | 0.0 | 0.00 | 0.00 | 0.00 | 98 | 1017.5 |
| 20260503041905 | 1 | 33 | 0.0 | 0.0 | 0.00 | 0.00 | 0.00 | 98 | 1017.5 |
| 20260503041402 | 1 | 80 | 0.0 | 0.0 | 0.00 | 0.00 | 0.00 | 98 | 1017.4 |
| 20260503040900 | 1 | 79 | 0.0 | 0.0 | 0.00 | 0.00 | 0.00 | 98 | 1017.5 |
| 20260503040357 | 1 | 48 | 0.0 | 0.0 | 0.00 | 0.23 | 0.23 | 98 | 1017.4 |
| 20260503035854 | 1 | 64 | 0.0 | 0.0 | 0.00 | 0.23 | 0.23 | 98 | 1017.6 |
| 20260503035351 | 1 | 54 | 0.0 | 0.0 | 0.00 | 0.23 | 0.23 | 98 | 1017.5 |
| 20260503034848 | 1 | 63 | 0.0 | 0.0 | 0.00 | 0.23 | 0.23 | 98 | 1017.4 |
| 20260503034346 | 1 | 63 | 0.0 | 0.0 | 0.00 | 0.23 | 0.23 | 98 | 1017.5 |
| 20260503033843 | 0 | 63 | 0.0 | 0.0 | 0.00 | 0.23 | 0.23 | 98 | 1017.4 |
| 20260503033340 | 1 | 63 | 0.0 | 0.0 | 0.00 | 0.23 | 0.23 | 97 | 1017.5 |
| 20260503032838 | 1 | 63 | 0.0 | 0.0 | 0.00 | 0.23 | 0.23 | 97 | 1017.4 |
| 20260503032337 | 1 | 63 | 0.0 | 0.0 | 0.00 | 0.23 | 0.23 | 97 | 1017.5 |
| 20260503031834 | 1 | 66 | 0.0 | 0.0 | 0.00 | 0.23 | 0.23 | 96 | 1017.5 |
| 20260503031331 | 1 | 67 | 0.0 | 0.0 | 0.00 | 0.23 | 0.23 | 95 | 1017.4 |
| 20260503030828 | 1 | 67 | 0.0 | 0.0 | 0.00 | 0.23 | 0.23 | 95 | 1017.4 |
| 20260503030324 | 1 | 67 | 0.0 | 0.0 | 0.00 | 0.23 | 0.23 | 95 | 1017.4 |
| 20260503025821 | 1 | 93 | 0.0 | 0.0 | 0.00 | 0.23 | 0.23 | 94 | 1017.7 |
| 20260503025319 | 1 | 94 | 0.0 | 0.0 | 0.00 | 0.23 | 0.23 | 93 | 1017.6 |
| 20260503024815 | 2 | 94 | 0.0 | 0.0 | 0.00 | 0.23 | 0.23 | 93 | 1017.6 |
| 20260503024312 | 2 | 90 | 0.0 | 0.0 | 0.00 | 0.23 | 0.23 | 93 | 1017.6 |
| 20260503023809 | 2 | 90 | 0.0 | 0.0 | 0.00 | 0.23 | 0.23 | 92 | 1017.6 |
| 20260503023306 | 3 | 90 | 0.0 | 0.0 | 0.00 | 0.23 | 0.23 | 92 | 1017.6 |
| 20260503022803 | 3 | 91 | 0.0 | 0.0 | 0.00 | 0.23 | 0.23 | 90 | 1017.5 |
| 20260503022304 | 3 | 109 | 0.0 | 0.0 | 0.00 | 0.23 | 0.23 | 91 | 1017.5 |
| 20260503021759 | 3 | 102 | 0.0 | 0.0 | 0.00 | 0.23 | 0.23 | 89 | 1017.5 |
| 20260503021255 | 3 | 112 | 0.0 | 0.0 | 0.00 | 0.23 | 0.23 | 90 | 1017.7 |
| 20260503020754 | 3 | 87 | 0.0 | 0.0 | 0.00 | 0.23 | 0.23 | 90 | 1017.8 |
| 20260503020251 | 3 | 69 | 0.0 | 0.0 | 0.00 | 0.23 | 0.23 | 89 | 1017.6 |
| 20260503015747 | 3 | 69 | 0.0 | 0.0 | 0.00 | 0.23 | 0.23 | 89 | 1017.7 |
| 20260503015244 | 3 | 82 | 0.0 | 0.0 | 0.00 | 0.23 | 0.23 | 89 | 1017.6 |
| 20260503014739 | 3 | 84 | 0.0 | 0.0 | 0.00 | 0.23 | 0.23 | 87 | 1017.5 |
| 20260503014238 | 3 | 84 | 0.0 | 0.0 | 0.00 | 0.23 | 0.23 | 87 | 1017.7 |
| 20260503013735 | 3 | 85 | 0.0 | 0.0 | 0.00 | 0.23 | 0.23 | 86 | 1017.4 |
| 20260503013232 | 3 | 83 | 0.0 | 0.0 | 0.00 | 0.23 | 0.23 | 85 | 1017.6 |
| 20260503012730 | 3 | 83 | 0.0 | 0.0 | 0.00 | 0.23 | 0.23 | 86 | 1017.6 |
| 20260503012226 | 3 | 84 | 0.0 | 0.0 | 0.00 | 0.23 | 0.23 | 85 | 1017.5 |
| 20260503011723 | 3 | 94 | 0.0 | 0.0 | 0.00 | 0.23 | 0.23 | 84 | 1017.6 |
| 20260503011220 | 3 | 91 | 0.0 | 0.0 | 0.00 | 0.23 | 0.23 | 83 | 1017.6 |
| 20260503010716 | 4 | 95 | 0.0 | 0.0 | 0.00 | 0.23 | 0.23 | 84 | 1017.6 |
| 20260503010213 | 4 | 92 | 0.0 | 0.0 | 0.00 | 0.23 | 0.23 | 82 | 1017.3 |
| 20260503005711 | 4 | 87 | 0.0 | 0.0 | 0.00 | 0.23 | 0.23 | 81 | 1017.4 |
| 20260503005208 | 4 | 97 | 0.0 | 0.0 | 0.00 | 0.23 | 0.23 | 82 | 1017.4 |
| 20260503004704 | 5 | 135 | 0.0 | 0.0 | 0.00 | 0.23 | 0.23 | 80 | 1017.4 |
| 20260503004203 | 5 | 50 | 0.0 | 1.6 | 0.00 | 0.23 | 0.23 | 78 | 1017.4 |
| 20260503003659 | 5 | 2 | 0.0 | 1.6 | 0.00 | 0.23 | 0.23 | 75 | 1017.2 |
| 20260503003156 | 5 | 340 | 1.6 | 3.2 | 0.00 | 0.23 | 0.23 | 74 | 1017.2 |
| 20260503002653 | 5 | 352 | 1.6 | 3.2 | 0.00 | 0.23 | 0.23 | 74 | 1017.2 |
| 20260503002150 | 5 | 348 | 0.0 | 1.6 | 0.00 | 0.23 | 0.23 | 76 | 1017.0 |
| 20260503001646 | 5 | 44 | 0.0 | 3.2 | 0.00 | 0.23 | 0.23 | 74 | 1017.1 |
| 20260503001143 | 5 | 71 | 0.0 | 0.0 | 0.00 | 0.23 | 0.23 | 77 | 1017.0 |
| 20260503000641 | 5 | 60 | 0.0 | 0.0 | 0.00 | 0.23 | 0.23 | 76 | 1017.1 |
| 20260503000137 | 5 | 55 | 0.0 | 0.0 | 0.00 | 0.23 | 0.23 | 73 | 1016.9 |
| 20260502235634 | 5 | 289 | 0.0 | 1.6 | 0.00 | 0.23 | 0.23 | 73 | 1017.1 |
| 20260502235133 | 5 | 351 | 0.0 | 1.6 | 0.00 | 0.23 | 0.23 | 73 | 1017.0 |
| 20260502234628 | 5 | 317 | 0.0 | 3.2 | 0.00 | 0.23 | 0.23 | 70 | 1016.8 |
| 20260502234126 | 5 | 350 | 0.0 | 1.6 | 0.00 | 0.23 | 0.23 | 71 | 1016.9 |
| 20260502233621 | 5 | 42 | 0.0 | 1.6 | 0.00 | 0.23 | 0.23 | 71 | 1016.9 |
| 20260502233118 | 6 | 313 | 3.2 | 4.8 | 0.00 | 0.23 | 0.23 | 71 | 1016.8 |
| 20260502232614 | 6 | 42 | 1.6 | 3.2 | 0.00 | 0.23 | 0.23 | 71 | 1016.8 |
| 20260502232112 | 6 | 356 | 0.0 | 0.0 | 0.00 | 0.23 | 0.23 | 72 | 1016.7 |
| 20260502231608 | 6 | 302 | 0.0 | 0.0 | 0.00 | 0.23 | 0.23 | 71 | 1016.9 |
| 20260502231106 | 6 | 359 | 0.0 | 0.0 | 0.00 | 0.23 | 0.23 | 70 | 1016.8 |
| 20260502230604 | 6 | 55 | 0.0 | 3.2 | 0.00 | 0.23 | 0.23 | 72 | 1016.8 |
| 20260502225557 | 6 | 326 | 3.2 | 3.2 | 0.00 | 0.23 | 0.23 | 71 | 1016.9 |
| 20260502225055 | 6 | 319 | 1.6 | 4.8 | 0.00 | 0.23 | 0.23 | 70 | 1016.7 |
| 20260502224551 | 6 | 295 | 0.0 | 1.6 | 0.00 | 0.23 | 0.23 | 71 | 1017.0 |
| 20260502224048 | 6 | 295 | 1.6 | 3.2 | 0.00 | 0.23 | 0.23 | 72 | 1016.9 |
| 20260502223546 | 6 | 315 | 0.0 | 1.6 | 0.00 | 0.23 | 0.23 | 71 | 1016.9 |
| 20260502223044 | 6 | 314 | 3.2 | 3.2 | 0.00 | 0.23 | 0.23 | 73 | 1016.8 |
| 20260502222541 | 6 | 28 | 0.0 | 6.4 | 0.00 | 0.23 | 0.23 | 74 | 1016.8 |
| 20260502222037 | 6 | 8 | 0.0 | 1.6 | 0.00 | 0.23 | 0.23 | 77 | 1016.6 |
| 20260502221533 | 6 | 343 | 3.2 | 3.2 | 0.00 | 0.23 | 0.23 | 75 | 1016.9 |
| 20260502221031 | 6 | 248 | 1.6 | 3.2 | 0.00 | 0.23 | 0.23 | 74 | 1016.7 |
| 20260502220526 | 6 | 317 | 1.6 | 3.2 | 0.00 | 0.23 | 0.23 | 76 | 1016.9 |
| 20260502220023 | 6 | 294 | 1.6 | 3.2 | 0.00 | 0.23 | 0.23 | 76 | 1016.9 |
| 20260502215520 | 6 | 317 | 3.2 | 4.8 | 0.00 | 0.23 | 0.23 | 76 | 1017.0 |
| 20260502215017 | 6 | 311 | 0.0 | 3.2 | 0.00 | 0.23 | 0.23 | 76 | 1017.0 |
| 20260502214514 | 6 | 348 | 1.6 | 3.2 | 0.00 | 0.23 | 0.23 | 76 | 1016.8 |
| 20260502214012 | 6 | 350 | 1.6 | 4.8 | 0.00 | 0.23 | 0.23 | 76 | 1016.8 |
| 20260502213508 | 6 | 17 | 0.0 | 1.6 | 0.00 | 0.23 | 0.23 | 77 | 1016.6 |
| 20260502213006 | 6 | 341 | 0.0 | 4.8 | 0.00 | 0.23 | 0.23 | 75 | 1016.9 |
| 20260502212505 | 6 | 337 | 3.2 | 3.2 | 0.00 | 0.23 | 0.23 | 75 | 1016.8 |
| 20260502212001 | 6 | 87 | 0.0 | 3.2 | 0.00 | 0.23 | 0.23 | 77 | 1016.6 |
| 20260502211457 | 6 | 345 | 1.6 | 3.2 | 0.00 | 0.23 | 0.23 | 77 | 1016.7 |
| 20260502210955 | 6 | 326 | 3.2 | 4.8 | 0.00 | 0.23 | 0.23 | 75 | 1016.7 |
| 20260502210451 | 6 | 332 | 1.6 | 4.8 | 0.00 | 0.23 | 0.23 | 77 | 1016.6 |
| 20260502205949 | 6 | 328 | 4.8 | 11.3 | 0.00 | 0.23 | 0.23 | 73 | 1016.6 |
| 20260502205445 | 6 | 287 | 3.2 | 6.4 | 0.00 | 0.23 | 0.23 | 72 | 1016.4 |
| 20260502204942 | 6 | 13 | 4.8 | 6.4 | 0.00 | 0.23 | 0.23 | 74 | 1016.5 |
| 20260502204439 | 6 | 328 | 1.6 | 6.4 | 0.00 | 0.23 | 0.23 | 75 | 1016.5 |
| 20260502203937 | 6 | 75 | 1.6 | 4.8 | 0.00 | 0.23 | 0.23 | 72 | 1016.5 |
| 20260502203434 | 6 | 305 | 1.6 | 3.2 | 0.00 | 0.23 | 0.23 | 74 | 1016.5 |
| 20260502202930 | 6 | 310 | 1.6 | 9.7 | 0.00 | 0.23 | 0.23 | 76 | 1016.6 |
| 20260502202427 | 6 | 329 | 1.6 | 4.8 | 0.00 | 0.23 | 0.23 | 77 | 1016.8 |
| 20260502201925 | 6 | 51 | 1.6 | 6.4 | 0.00 | 0.23 | 0.23 | 74 | 1016.6 |
| 20260502201421 | 6 | 352 | 3.2 | 4.8 | 0.00 | 0.23 | 0.23 | 73 | 1016.6 |
| 20260502200918 | 6 | 4 | 1.6 | 12.9 | 0.00 | 0.23 | 0.23 | 73 | 1016.7 |